カタログに戻る

THOR BURNER 2 R/B

運用中SSO
NORAD 4048·ROCKET BODY·🇺🇸 United States

打ち上げ Jul 23, 1969 から Vandenberg Space Force Base

Loading…

次のパス (今後24時間)

TLE

最新Source: Space-Track

元期: Sep 13, 2026, 23:30 UTC

1 04048U 69062B   26256.97971316  .00000110  00000-0  55692-4 0  9996
2 04048  98.3449  82.1740 0041693 160.1807 200.1009 14.32285833977311

AllMySatでTHOR BURNER 2 R/Bをリアルタイム追跡

Download on the App Store